Regional Weather Roundup
Issued by NWS

Home | Current Version | Previous Version | Text Only | Print | Product List | Glossary On
Versions: 1 2 3 4 5 6 7 8 9 10 11 12 13 14 15 16 17 18 19 20 21 22 23 24 25 26 27 28 29 30 31 32 33 34 35 36 37 38 39 40 41 42 43 44 45 46 47 48 49 50
000
ASUS43 KBIS 032202
RWRND

NORTH DAKOTA REGIONAL WEATHER ROUNDUP
NATIONAL WEATHER SERVICE BISMARCK ND
500 PM CDT THU SEP 03 2015

NOTE: "FAIR" INDICATES FEW OR NO CLOUDS BELOW 12,000 FEET WITH NO
SIGNIFICANT WEATHER AND/OR OBSTRUCTIONS TO VISIBILITY.


NDZ001>003-009>011-017-032300-
NORTHWEST NORTH DAKOTA

CITY           SKY/WX    TMP DP  RH WIND       PRES   REMARKS
WILLISTON      PTSUNNY   86  51  29 N15       29.72R
MINOT          MOSUNNY   94  60  32 W6        29.63S HX  94
$$

NDZ018>021-031>035-040>046-032300-
SOUTHWEST NORTH DAKOTA

CITY           SKY/WX    TMP DP  RH WIND       PRES   REMARKS
BISMARCK       PTSUNNY  100  59  25 S14       29.64F HX 100
DICKINSON      SUNNY     90  54  29 VRB7      29.71S
GARRISON         N/A     95  56  26 W8        29.66R HX  93
HETTINGER ARPT MOSUNNY   90  47  22 W8        29.73F
$$

NDZ004>008-012>016-024-026-027-054-032300-
NORTHEAST NORTH DAKOTA

CITY           SKY/WX    TMP DP  RH WIND       PRES   REMARKS
GRAND FORKS    MOSUNNY   93  71  48 S21G29    29.69S HX 100
GRND FRKS AFB  SUNNY     91  71  51 S23       29.69F HX  98
DEVILS LAKE    SUNNY     93  70  46 SE15      29.65F HX  99
$$

NDZ022-023-025-028>030-036>039-047>053-032300-
SOUTHEAST NORTH DAKOTA

CITY           SKY/WX    TMP DP  RH WIND       PRES   REMARKS
FARGO          SUNNY     92  72  51 SE21      29.73F HX  99
JAMESTOWN      SUNNY     94  64  37 S17G26    29.70S HX  95
$$




USA.gov is the U.S. government's official web portal to all federal, state and local government web resources and services.